MOSJOEN_KJAERSTAD current weather conditions

sailwx.info

Wind at 6 knots

Air temperature 5.0° C
Visibility: greater than 5.4 NM
Dewpoint 1.0° C
Present weather: Showers in the vicinity.

Last reported at 2019-Dec-06 19:50 UTC.
Time now 2019-Dec-06 20:52 UTC

Location: N 65°47' E 013°13'.
View on Google Maps.

See reports from other nearby stations

  
Tides and Currents Weather Stations Pressure Air Temp Water Temp Dewpoint Dewpoint Depression Visibility Wind Speed Wind Dir Waves Ship Positions
date/time (UTC)wind fromknots sea level pressurealtimeterstation pressurevisibilityair tempwater tempwave heightnotes
2019-Dec-06 19:50 5.4 5.0 Showers in the vicinity.
2019-Dec-06 19:20 5.4 5.0 Light rain showers.
2019-Dec-06 18:50 5.4 4.0 Showers in the vicinity.
2019-Dec-06 18:20 5.4 3.0 Light rain showers.
2019-Dec-06 17:50 160 5 5.4 3.0 Light rain showers.
2019-Dec-06 17:20 160 7 4.9 3.0 Light rain showers.
2019-Dec-06 16:50 170 8 4.9 3.0 Light rain showers.
2019-Dec-06 16:20 160 7 5.4 3.0 Light rain showers.
2019-Dec-06 15:50 160 9 5.4 2.0 Light rain showers.
2019-Dec-06 15:20 160 7 5.4 2.0 Light rain showers.
2019-Dec-06 14:50 180 8 4.9 2.0 Light rain showers.
2019-Dec-06 14:20 160 8 5.4 2.0 Light rain showers.
2019-Dec-06 13:50 170 7 4.3 1.0 Light rain showers.
2019-Dec-06 13:20 170 9 4.3 1.0 Light rain showers.
2019-Dec-06 12:50 170 6 4.9 1.0 Light rain showers.
2019-Dec-06 12:20 180 6 4.3 1.0 Light rain showers.
2019-Dec-06 11:50 190 8 5.4 2.0 Light rain showers.
2019-Dec-06 11:20 180 6 5.4 2.0 Light rain showers.
2019-Dec-06 10:50 180 8 5.4 2.0 Light rain showers.
2019-Dec-06 09:50 180 9 5.4 2.0 Light rain showers.
2019-Dec-06 09:20 180 9 5.4 2.0 Light rain showers.
2019-Dec-06 08:20 180 9 5.4 2.0 Showers in the vicinity.
2019-Dec-06 07:50 170 6 5.4 2.0 Light rain showers.
2019-Dec-06 07:20 170 7 5.4 2.0 Light rain showers.
2019-Dec-06 06:50 180 6 5.4 2.0
2019-Dec-06 05:50 190 5 5.4 1.0 Showers in the vicinity.
2019-Dec-06 05:20 190 6 4.9 1.0 Light snow showers.
2019-Dec-05 22:20 160 6 5.4 1.0 Showers in the vicinity.
2019-Dec-05 21:50 5.4 1.0 Light snow showers.
2019-Dec-05 21:20 170 6 5.4 1.0 Light snow showers.
2019-Dec-05 20:50 160 7 5.4 1.0 Light snow showers.
2019-Dec-05 20:20 5.4 2.0 Light snow showers.
2019-Dec-05 19:50 5.4 2.0
2019-Dec-05 19:20 5.4 2.0 Light snow showers.
2019-Dec-05 18:50 5.4 2.0 Light snow showers.
2019-Dec-05 18:20 4.9 2.0 Light snow showers.
2019-Dec-05 17:50 180 11 4.3 1.0 Light snow showers.
2019-Dec-05 17:20 4.3 1.0 Light snow showers.
2019-Dec-05 16:50 4.9 1.0 Light snow.
2019-Dec-05 16:20 1.6 2.0 Light snow showers. Mist.
2019-Dec-05 15:50 170 7 4.9 1.0 Light snow showers.
2019-Dec-05 15:20 160 5 5.4 1.0 Light rain showers.
2019-Dec-05 14:50 180 8 5.4 2.0 Light rain showers.
2019-Dec-05 14:20 200 8 5.4 3.0 Light rain showers.
2019-Dec-05 13:50 180 8 5.4 2.0 Showers in the vicinity.
2019-Dec-05 13:20 170 8 5.4 1.0 Light rain showers.
2019-Dec-05 12:50 200 9 gusting 20 4.9 2.0 Light rain showers.
2019-Dec-05 12:20 190 11 gusting 21 4.9 3.0 Light rain showers.
2019-Dec-05 11:50 190 14 gusting 29 5.4 3.0 Light rain showers.
2019-Dec-05 11:20 170 12 5.4 2.0 Light rain showers.
2019-Dec-05 10:50 170 12 5.4 2.0 Light rain showers.
2019-Dec-05 10:20 170 13 5.4 2.0 Light rain showers.
2019-Dec-05 09:50 190 8 5.4 2.0 Light rain showers.
2019-Dec-05 09:20 190 8 5.4 2.0 Light rain showers.
2019-Dec-05 08:50 190 13 5.4 3.0 Light rain showers.
2019-Dec-05 08:20 190 12 5.4 3.0 Light rain showers.
2019-Dec-05 07:50 180 11 5.4 3.0 Light rain.
2019-Dec-05 07:20 190 12 5.4 4.0 Light rain.
2019-Dec-05 06:50 190 13 5.4 4.0 Light rain.
2019-Dec-05 06:20 190 13 5.4 4.0 Light rain.
2019-Dec-05 05:50 210 13 gusting 24 5.4 5.0
2019-Dec-05 05:20 210 14 gusting 27 5.4 5.0 Light rain.
2019-Dec-05 04:50 190 13 5.4 4.0 Light rain.
2019-Dec-04 21:20 190 7 5.4 5.0 Light rain.
2019-Dec-04 20:50 190 7 4.3 5.0 Light rain.
2019-Dec-04 20:20 180 7 4.9 5.0 Light rain.